This is the latest recevied weather packets stored in our database for station/object N4JTC. If no packets are shown the sender has not sent any weather packets the latest 10 day(s).
| Time | Temp. | Humidity | Pressure | Rain* | Wind** | Luminosity | Snow |
|---|---|---|---|---|---|---|---|
| 1777660203 | 25.56° C | 74% | 1012.5 hPa | 0 mm | - | 206 W/m² | - |
| 1777659902 | 25.56° C | 75% | 1012.6 hPa | 0 mm | - | 158 W/m² | - |
| 1777659603 | 25° C | 75% | 1012.8 hPa | 0 mm | - | 121 W/m² | - |
| 1777659303 | 25° C | 76% | 1012.6 hPa | 0 mm | - | 90 W/m² | - |
| 1777658703 | 25.56° C | 74% | 1012.7 hPa | 0 mm | - | 72 W/m² | - |
| 1777658403 | 25.56° C | 73% | 1012.5 hPa | 0 mm | - | 132 W/m² | - |
| 1777658103 | 25.56° C | 74% | 1012.5 hPa | 0 mm | - | 291 W/m² | - |
| 1777657503 | 25.56° C | 75% | 1012.4 hPa | 0 mm | - | 256 W/m² | - |
| 1777657203 | 25.56° C | 74% | 1012.3 hPa | 0 mm | - | 248 W/m² | - |
| 1777656902 | 25.56° C | 74% | 1012.6 hPa | 0 mm | - | 301 W/m² | - |
| 1777656604 | 25.56° C | 73% | 1012.5 hPa | 0 mm | - | 184 W/m² | - |
| 1777656303 | 25.56° C | 74% | 1012.5 hPa | 0 mm | - | 239 W/m² | - |
| 1777656003 | 25.56° C | 75% | 1012.4 hPa | 0 mm | - | 196 W/m² | - |
| 1777655704 | 25.56° C | 75% | 1012.8 hPa | 0 mm | - | 250 W/m² | - |
| 1777655403 | 25.56° C | 75% | 1013 hPa | 0 mm | - | 245 W/m² | - |
| 1777655104 | 25.56° C | 75% | 1013.1 hPa | 0 mm | - | 207 W/m² | - |
| 1777654802 | 25° C | 76% | 1012.6 hPa | 0 mm | - | 194 W/m² | - |
| 1777654503 | 25° C | 77% | 1012.8 hPa | 0 mm | - | 163 W/m² | - |
| 1777653902 | 25° C | 76% | 1013.1 hPa | 0 mm | - | 153 W/m² | - |
| 1777653303 | 25° C | 76% | 1013.3 hPa | 0 mm | - | 124 W/m² | - |
| 1777653003 | 25° C | 75% | 1013.1 hPa | 0 mm | - | 98 W/m² | - |
| 1777652703 | 25° C | 75% | 1013.5 hPa | 0 mm | - | 104 W/m² | - |
| 1777652403 | 25.56° C | 73% | 1013.8 hPa | 0 mm | - | 117 W/m² | - |
| 1777652103 | 25° C | 75% | 1013.2 hPa | 0 mm | - | 305 W/m² | - |
| 1777651804 | 25° C | 75% | 1013.3 hPa | 0 mm | - | 301 W/m² | - |
* Rain latest hour (hover to see other rain measurements)
** Current wind speed in m/s (hover to see current wind gust speed)